FENGYUN 1C DEB, 36692

Orbit data source: Space-Track

FENGYUN 1C DEB, 36692 is space debris in SSO originally from a launch on Mon, 10 May 1999 UTC launched from the Taiyaun Space Center, China (TSC). Fengyun 1C debris stems from the Chinese weather satellite Fengyun-1C, which was intentionally destroyed by a Chinese anti-satellite missile in 2007. This event dramatically increased the amount of space debris, with thousands of trackable fragments posing hazards to satellites and human spaceflight. The Fengyun 1C debris cloud has become a focal point in discussions about space sustainability and the need for international regulations to prevent the creation of new debris.

Loading next visibility...
Identifier
36692, 1999-025DZN
Orbit
SSO
Country
Flag of CNCN / PRC
Related business
Manufacturer
Unknown
Mission
Spacecraft
Bus & Motor
Unknown
Mass
Unknown
Launch date (UTC)
1999-05-10 (27 years ago)
Launch vehicle
Unknown
Launch site
Taiyaun Space Center, China (TSC)
Object type
Payload
Rocket body
Debris
Shape & HBR
Unknown shape, 0.1 m
Radar Cross Section
Small (<0.1 m²)

Expand to show TLE details & history
Last TLE update: 1 week ago

TLE from 1 week ago
0 FENGYUN 1C DEB
1 36692U 99025DZN 26163.00532884  .00000507  00000-0  40297-3 0  9996
2 36692  99.9941  88.5928 0112904 253.6163 105.2558 13.93711232623304
Epoch: 2026-06-12T00:07Z
TLE epoch observation values (Epoch: 2026-06-12T00:07:40.411Z)
Latitude
-0.00003°
Longitude
-173.66656°
Altitude
941.023 km
Speed
7.37 km/s
True Right ascension
05h 54m 22s
True Declination
0° 00' 00"
Sunlit
Object was in daylight at epoch
Visualization orbit readout
Latitude
Unknown
Longitude
Unknown
Altitude
Unknown
Speed
Unknown
Apparent Right ascension
Unknown
Apparent Declination
Unknown
Sunlit
N/A
Visualization observer readout
Local Sidereal Time
00:09:49
Azimuth
Unknown
Elevation
Unknown
Doppler factor
Unknown
Orbital elements
Apogee altitude
995.231 km
Perigee altitude
830.593 km
Semi-major axis
7,291.049 km
Eccentricity
0.01129
Inclination
99.9941°
RAAN
88.5928°
Arg. of periapsis
253.6163°
True anomaly
106.49928°
Mean anomaly
105.2558°
Eccentric anomaly
105.87801°
Mean motion
3.48625 °/min
Orbital period
103.26 mins
BSTAR
0.00040297
Loading maneuver chart data...
Computing Atmospheric mass density...

Documentation

Showing up to 5 results
|